Dilworth, MN

9:45 PM CST on February 25, 2017 (GMT -0600)
Moorhead Municipal

Weather History for KJKJ - August, 2013

Change the Weather History Date:

Saturday, August 3, 2013

  Actual Average (KFAR) Record (KFAR)
Temperature  
Mean Temperature 64 °F -  
Max Temperature 75 °F 81 °F 100 °F (1989)
Min Temperature 53 °F 57 °F 38 °F (1972)
Degree Days  
Heating Degree Days 1    
Growing Degree Days 14 (Base 50)    
Moisture  
Dew Point 50 °F    
Average Humidity 67    
Maximum Humidity 100    
Minimum Humidity 29    
Precipitation  
Precipitation 0.00 in - - ()
Sea Level Pressure  
Sea Level Pressure 30.20 in    
Wind  
Wind Speed 5 mph (NNE)    
Max Wind Speed 14 mph    
Max Gust Speed 17 mph    
Visibility 10 miles    
Events      
Averages and records for this station are not official NWS values.
T = Trace of Precipitation, MM = Missing Value Source: NWS Daily Summary

Daily Weather History Graph

Daily Weather History Graph

Search for Another Location

Airport or City:

Trip Planner

Search our weather history database for the weather conditions in past years. The results will help you decide how hot, cold, wet, or windy it might be!

Date:

Astronomy

Aug. 03, 2013 Rise Set
Actual Time 6:09 AM CDT 8:55 PM CDT
Civil Twilight 5:34 AM CDT 9:30 PM CDT
Nautical Twilight 4:49 AM CDT 10:14 PM CDT
Astronomical Twilight 3:57 AM CDT 11:06 PM CDT
Moon 3:17 AM CDT (8/3) 6:40 PM CDT (8/3)
Length of Visible Light 15h 55m
Length of Day
14h 46m
Waning Crescent, 9% of the Moon is Illuminated
Aug 3
Waning Crescent
Aug 6
New
Aug 14
First Quarter
Aug 20
Full
Aug 28
Last Quarter

Hourly Weather History & Observations

Time (CDT) Temp. Dew Point Humidity Pressure Visibility Wind Dir Wind Speed Gust Speed Precip Events Conditions
12:14 AM 55.4 °F 53.6 °F 94% 30.11 in 10.0 mi North 3.5 mph - N/A   Clear
12:35 AM 57.2 °F 53.6 °F 88% 30.11 in 10.0 mi NNE 4.6 mph - N/A   Clear
12:55 AM 55.4 °F 53.6 °F 94% 30.11 in 10.0 mi NNE 4.6 mph - N/A   Clear
1:14 AM 55.4 °F 53.6 °F 94% 30.12 in 10.0 mi NNE 4.6 mph - N/A   Clear
1:35 AM 55.4 °F 53.6 °F 94% 30.12 in 10.0 mi North 4.6 mph - N/A   Clear
1:55 AM 53.6 °F 53.6 °F 100% 30.13 in 10.0 mi North 3.5 mph - N/A   Clear
2:15 AM 53.6 °F 53.6 °F 100% 30.13 in 10.0 mi North 4.6 mph - N/A   Clear
2:35 AM 53.6 °F 53.6 °F 100% 30.13 in 10.0 mi Calm Calm - N/A   Clear
2:54 AM 53.6 °F 53.6 °F 100% 30.13 in 10.0 mi Calm Calm - N/A   Clear
3:15 AM 53.6 °F 53.6 °F 100% 30.13 in 10.0 mi North 3.5 mph - N/A   Clear
3:35 AM 53.6 °F 53.6 °F 100% 30.14 in 10.0 mi North 3.5 mph - N/A   Clear
3:54 AM 55.4 °F 55.4 °F 100% 30.14 in 10.0 mi North 3.5 mph - N/A   Scattered Clouds
4:15 AM 53.6 °F 53.6 °F 100% 30.14 in 10.0 mi North 3.5 mph - N/A   Scattered Clouds
4:35 AM 53.6 °F 53.6 °F 100% 30.14 in 10.0 mi Calm Calm - N/A   Clear
4:54 AM 55.4 °F 55.4 °F 100% 30.14 in 10.0 mi Calm Calm - N/A   Clear
5:15 AM 55.4 °F 55.4 °F 100% 30.15 in 10.0 mi Calm Calm - N/A   Clear
5:35 AM 55.4 °F 55.4 °F 100% 30.15 in 10.0 mi North 3.5 mph - N/A   Clear
5:54 AM 53.6 °F 53.6 °F 100% 30.16 in 10.0 mi NW 3.5 mph - N/A   Clear
6:15 AM 53.6 °F 53.6 °F 100% 30.17 in 10.0 mi Calm Calm - N/A   Clear
6:35 AM 53.6 °F 53.6 °F 100% 30.17 in 10.0 mi NNW 3.5 mph - N/A   Clear
6:55 AM 55.4 °F 55.4 °F 100% 30.18 in 10.0 mi NNW 3.5 mph - N/A   Clear
7:15 AM 55.4 °F 55.4 °F 100% 30.19 in 10.0 mi North 4.6 mph - N/A   Clear
7:34 AM 57.2 °F 55.4 °F 94% 30.18 in 10.0 mi NNE 4.6 mph - N/A   Scattered Clouds
7:55 AM 57.2 °F 57.2 °F 100% 30.20 in 10.0 mi North 4.6 mph - N/A   Scattered Clouds
8:15 AM 60.8 °F 57.2 °F 88% 30.20 in 10.0 mi NNE 5.8 mph - N/A   Mostly Cloudy
8:34 AM 60.8 °F 55.4 °F 82% 30.21 in 10.0 mi NNE 6.9 mph - N/A   Mostly Cloudy
8:55 AM 62.6 °F 55.4 °F 77% 30.22 in 10.0 mi NNE 5.8 mph - N/A   Scattered Clouds
9:15 AM 64.4 °F 53.6 °F 68% 30.22 in 10.0 mi NNE 10.4 mph - N/A   Mostly Cloudy
9:34 AM 66.2 °F 53.6 °F 64% 30.23 in 10.0 mi NE 9.2 mph - N/A   Mostly Cloudy
9:55 AM 66.2 °F 53.6 °F 64% 30.23 in 10.0 mi NE 9.2 mph - N/A   Scattered Clouds
10:15 AM 66.2 °F 55.4 °F 68% 30.23 in 10.0 mi NNE 9.2 mph - N/A   Scattered Clouds
10:34 AM 68.0 °F 53.6 °F 60% 30.23 in 10.0 mi NNE 10.4 mph - N/A   Clear
10:55 AM 69.8 °F 51.8 °F 53% 30.23 in 10.0 mi NNE 9.2 mph - N/A   Clear
11:14 AM 69.8 °F 48.2 °F 46% 30.23 in 10.0 mi NE 8.1 mph 11.5 mph N/A   Clear
11:35 AM 69.8 °F 48.2 °F 46% 30.23 in 10.0 mi North 10.4 mph - N/A   Clear
11:55 AM 69.8 °F 50.0 °F 49% 30.23 in 10.0 mi NNE 9.2 mph - N/A   Clear
12:14 PM 71.6 °F 50.0 °F 46% 30.23 in 10.0 mi NNE 9.2 mph - N/A   Clear
12:35 PM 69.8 °F 50.0 °F 49% 30.23 in 10.0 mi NNE 9.2 mph - N/A   Clear
12:55 PM 71.6 °F 50.0 °F 46% 30.23 in 10.0 mi North 8.1 mph - N/A   Clear
1:14 PM 71.6 °F 50.0 °F 46% 30.23 in 10.0 mi North 8.1 mph - N/A   Clear
1:35 PM 71.6 °F 46.4 °F 41% 30.23 in 10.0 mi NE 8.1 mph - N/A   Scattered Clouds
1:55 PM 71.6 °F 46.4 °F 41% 30.23 in 10.0 mi North 9.2 mph - N/A   Scattered Clouds
2:14 PM 73.4 °F 44.6 °F 36% 30.23 in 10.0 mi NE 10.4 mph - N/A   Scattered Clouds
2:35 PM 73.4 °F 44.6 °F 36% 30.22 in 10.0 mi NE 12.7 mph 17.3 mph N/A   Scattered Clouds
2:55 PM 73.4 °F 44.6 °F 36% 30.22 in 10.0 mi North 13.8 mph - N/A   Clear
3:14 PM 73.4 °F 44.6 °F 36% 30.22 in 10.0 mi North 9.2 mph - N/A   Clear
3:35 PM 73.4 °F 44.6 °F 36% 30.22 in 10.0 mi NNW 10.4 mph - N/A   Scattered Clouds
3:55 PM 75.2 °F 41.0 °F 29% 30.22 in 10.0 mi North 11.5 mph 16.1 mph N/A   Clear
4:14 PM 75.2 °F 42.8 °F 31% 30.22 in 10.0 mi North 10.4 mph 16.1 mph N/A   Clear
4:35 PM 73.4 °F 39.2 °F 29% 30.21 in 10.0 mi NNE 11.5 mph 16.1 mph N/A   Clear
4:55 PM 73.4 °F 42.8 °F 33% 30.21 in 10.0 mi North 11.5 mph - N/A   Clear
5:14 PM 73.4 °F 41.0 °F 31% 30.21 in 10.0 mi NE 8.1 mph 16.1 mph N/A   Clear
5:35 PM 73.4 °F 42.8 °F 33% 30.21 in 10.0 mi NE 10.4 mph 16.1 mph N/A   Scattered Clouds
5:55 PM 73.4 °F 41.0 °F 31% 30.21 in 10.0 mi North 6.9 mph - N/A   Scattered Clouds
6:14 PM 73.4 °F 42.8 °F 33% 30.21 in 10.0 mi NE 8.1 mph - N/A   Scattered Clouds
6:35 PM 73.4 °F 42.8 °F 33% 30.21 in 10.0 mi NE 8.1 mph - N/A   Clear
6:55 PM 73.4 °F 39.2 °F 29% 30.21 in 10.0 mi ENE 4.6 mph - N/A   Clear
7:15 PM 73.4 °F 41.0 °F 31% 30.21 in 10.0 mi NE 5.8 mph - N/A   Scattered Clouds
7:35 PM 71.6 °F 44.6 °F 38% 30.21 in 10.0 mi North 4.6 mph - N/A   Clear
7:54 PM 71.6 °F 44.6 °F 38% 30.20 in 10.0 mi NE 6.9 mph - N/A   Clear
8:15 PM 68.0 °F 50.0 °F 52% 30.20 in 10.0 mi NE 4.6 mph - N/A   Clear
8:35 PM 66.2 °F 51.8 °F 60% 30.20 in 10.0 mi NE 3.5 mph - N/A   Clear
8:54 PM 64.4 °F 51.8 °F 64% 30.21 in 10.0 mi NE 3.5 mph - N/A   Clear
9:15 PM 64.4 °F 51.8 °F 64% 30.21 in 10.0 mi ENE 3.5 mph - N/A   Clear
9:35 PM 62.6 °F 51.8 °F 68% 30.22 in 10.0 mi Calm Calm - N/A   Clear
9:54 PM 62.6 °F 51.8 °F 68% 30.22 in 10.0 mi Calm Calm - N/A   Clear
10:15 PM 59.0 °F 51.8 °F 77% 30.23 in 10.0 mi Calm Calm - N/A   Clear
10:35 PM 60.8 °F 51.8 °F 72% 30.24 in 10.0 mi Calm Calm - N/A   Clear
10:54 PM 60.8 °F 51.8 °F 72% 30.24 in 10.0 mi Calm Calm - N/A   Clear
11:15 PM 57.2 °F 51.8 °F 82% 30.24 in 10.0 mi Calm Calm - N/A   Clear
11:34 PM 57.2 °F 51.8 °F 82% 30.25 in 10.0 mi Calm Calm - N/A   Clear
11:55 PM 55.4 °F 51.8 °F 88% 30.24 in 10.0 mi East 3.5 mph - N/A   Clear